Location: Doazon
(43.4500°N, 0.5500°W)
Time: 01:12:44
(UTC+00:00)

USA 238 DEB - Pass Details

Date: 05 December 2025
Orbit: 883 x 1328 km, 63.4° (Epoch: 10 January)

Event Time Altitude Azimuth Distance (km) Brightness Sun altitude
Rises 19:17:52 0° 207° (SSW) 3,497 6.8 -30.4°
Reaches altitude 10° 19:20:17 10° 205° (SSW) 2,586 6.0 -30.8°
Enters shadow 19:24:08 42° 192° (SSW) 1,306 4.2 -31.5°
